STARLINK-33611 (63279 NORAD) Tracking and Keplerian Element Data

This shows tracking and keplerian element data for the satellite.

Feedback or suggestion? Click here.




ElementValue
Catalog63279
NameSTARLINK-33611
Epoch Orbit4415
Epoch Day353.97132161
Epoch Year2025
RAAN328.3396
Inclination43.0046
Eccentricity0.0002569
Argument of Perigee284.5171
Mean Anonmoly75.5396
Mean Motion15.27588147
Decay Rate0.00012732
L11 63279U 25053Q 25353.97132161 .00012732 00000+0 47127-3 0 9998
L22 63279 43.0046 328.3396 0002569 284.5171 75.5396 15.27588147 44157



Live tracking and technical data element details for STARLINK-33611 (NORAD 63279). STARLINK-33611 can be tracked NOW for your location showing map with azimuth and elevation plus other details from your city location.







IsCatalogInMostPopularTable: catalog: 63279, numindb: 2
Update: records affected: 1



GetName: 63279 STARLINK-33611

Hit Count: updated at: Sat, 07 Feb 2026 08:27:56 GMT